CW2659 Weather Reports


time (UTC)temp
C
wind
direction
speed
KPH
gust
KPH
rain 1hr
cm
rain 24hr
cm
rain mn
cm
humidity
%
barometer
mb
20260503213023 26 318 6.4 16.1 0.00 0.00 0.00 45 1010.7
20260503211521 26 351 6.4 12.9 0.00 0.00 0.00 44 1010.8
20260503210017 26 7 3.2 14.5 0.00 0.00 0.00 44 1011.0
20260503204514 25 14 8.0 16.1 0.00 0.00 0.00 47 1011.2
20260503203032 25 31 9.7 16.1 0.00 0.00 0.00 49 1011.3
20260503201509 25 50 9.7 17.7 0.00 0.00 0.00 47 1011.5
20260503200005 24 332 6.4 12.9 0.00 0.00 0.00 48 1011.7
20260503194503 23 345 9.7 16.1 0.00 0.00 0.00 49 1011.8
20260503193100 23 332 4.8 12.9 0.00 0.00 0.00 53 1012.1
20260503191557 23 332 4.8 11.3 0.00 0.00 0.00 55 1012.2
20260503184549 21 61 8.0 17.7 0.00 0.00 0.00 60 1012.5
20260503183045 20 33 9.7 22.5 0.00 0.00 0.00 64 1012.6
20260503181549 20 24 11.3 22.5 0.00 0.00 0.00 66 1012.6
20260503180040 20 52 12.9 19.3 0.00 0.00 0.00 66 1012.6
20260503174537 19 28 11.3 17.7 0.00 0.00 0.00 64 1012.8
20260503173034 18 40 9.7 19.3 0.00 0.00 0.00 66 1012.8
20260503171532 18 57 9.7 16.1 0.00 0.00 0.00 68 1012.9
20260503100107 14 44 4.8 8.0 0.00 0.00 0.00 68 1013.3
20260503081550 15 70 8.0 14.5 0.00 0.00 0.00 65 1013.6
20260503071537 15 56 9.7 16.1 0.00 0.00 0.00 64 1013.5
20260503054550 16 57 12.9 22.5 0.00 0.00 0.00 59 1013.4
20260503053038 16 58 11.3 22.5 0.00 0.00 0.00 58 1013.5
20260503051530 17 13 12.9 20.9 0.00 0.00 0.00 58 1013.4
20260503050029 17 42 12.9 24.1 0.00 0.00 0.00 58 1013.4
20260503044529 17 20 12.9 24.1 0.00 0.00 0.00 59 1013.4
20260503043029 17 68 12.9 20.9 0.00 0.00 0.00 59 1013.2
20260503041528 17 50 11.3 19.3 0.00 0.00 0.00 58 1013.1
20260503040035 17 54 12.9 24.1 0.00 0.00 0.00 57 1013.0
20260503034528 17 29 11.3 25.7 0.00 0.00 0.00 57 1012.7
20260503033030 18 81 11.3 19.3 0.00 0.00 0.00 60 1012.6
20260503031526 18 60 11.3 19.3 0.00 0.00 0.00 61 1012.5
20260503030027 20 26 11.3 19.3 0.00 0.00 0.00 61 1012.3
20260503024526 20 32 11.3 19.3 0.00 0.00 0.00 59 1012.2
20260503023026 21 53 9.7 20.9 0.00 0.00 0.00 57 1012.2
20260503021524 22 30 12.9 20.9 0.00 0.00 0.00 55 1012.2
20260503020048 22 16 6.4 16.1 0.00 0.00 0.00 55 1012.2
20260503014524 23 28 6.4 16.1 0.00 0.00 0.00 54 1012.3
20260503013022 23 7 8.0 16.1 0.00 0.00 0.00 54 1012.2
20260503011523 23 37 4.8 14.5 0.00 0.00 0.00 54 1012.4
20260503010023 23 14 9.7 22.5 0.00 0.00 0.00 52 1012.3
20260503004519 23 18 14.5 20.9 0.00 0.00 0.00 52 1012.4
20260503003016 24 18 9.7 19.3 0.00 0.00 0.00 50 1012.4
20260503001515 24 45 8.0 17.7 0.00 0.00 0.00 50 1012.5
20260503000014 24 7 4.8 16.1 0.00 0.00 0.00 49 1012.7
20260502234522 23 344 9.7 14.5 0.00 0.00 0.00 49 1012.8
20260502233010 23 34 9.7 17.7 0.00 0.00 0.00 49 1013.0
20260502231507 23 338 12.9 24.1 0.00 0.00 0.00 52 1013.2
20260502230005 23 11 4.8 20.9 0.00 0.00 0.00 54 1013.3
20260502224502 23 332 9.7 22.5 0.00 0.00 0.00 56 1013.5
20260502223001 23 28 8.0 22.5 0.00 0.00 0.00 60 1013.7
20260502221558 22 28 9.7 25.7 0.00 0.00 0.00 58 1013.9
20260502220057 22 5 12.9 20.9 0.00 0.00 0.00 60 1014.1
20260502214555 22 307 9.7 17.7 0.00 0.00 0.00 58 1014.2